Regional Weather Roundup
Issued by NWS Newport/Morehead, NC

Home | Current Version | Previous Version | Text Only | Print | Product List | Glossary On
Versions: 1 2 3 4 5 6 7 8 9 10 11 12 13 14 15 16 17 18 19 20 21 22 23 24 25 26 27 28 29 30 31 32 33 34 35 36 37 38 39 40 41 42 43 44 45 46 47 48 49 50
000
ASUS42 KMHX 210224
RWRMHX
WEATHER ROUNDUP FOR EASTERN NORTH CAROLINA
NATIONAL WEATHER SERVICE NEWPORT/MOREHEAD CITY NC
900 PM EST FRI JAN 20 2017

NOTE: "FAIR" INDICATES FEW OR NO CLOUDS BELOW 12,000 FEET
WITH NO SIGNIFICANT WEATHER AND/OR OBSTRUCTIONS TO VISIBILITY

NCZ015>017-031-032-045>047-102-103-210300-
NORTH COAST

CITY           SKY/WX    TMP DP  RH WIND       PRES   REMARKS
EDENTON        CLOUDY    51  49  93 CALM      29.91F FOG
ELIZABETH CITY CLOUDY    48  47  96 CALM      29.91S
KITTY HAWK     NOT AVBL
MANTEO         CLOUDY    49  49 100 N8        29.91R

$$

NCZ045>047-081-094-103-104-210300-
CENTRAL COAST

CITY           SKY/WX    TMP DP  RH WIND       PRES   REMARKS
FRISCO         CLOUDY    52  50  93 VRB6      29.88R FOG

$$

NCZ095-097-098-100-101-210300-
SOUTHERN COAST

CITY           SKY/WX    TMP DP  RH WIND       PRES   REMARKS
BEAUFORT       FOG       57  56  96 CALM      29.88R VSB 3/4
CEDAR ISLAND   NOT AVBL
JACKSONVILLE   CLEAR     57  57 100 NW3       29.88R
PINEY ISLAND   CLOUDY   N/A N/A N/A N8        29.88R
WILMINGTON     CLEAR     59  59 100 CALM      29.89R


$$

NCZ011>013-027>030-043-044-078>080-089-090>093-098-210300-
COASTAL PLAIN

CITY           SKY/WX    TMP DP  RH WIND       PRES   REMARKS
AHOSKIE          N/A     48  48  99 CALM      29.92S FOG
CLINTON        PTCLDY    56  56 100 CALM      29.91R
ELIZABETHTOWN  PTCLDY    56  56  99 CALM      29.90R
GOLDSBORO      CLEAR     52  52 100 CALM      29.89R
GREENVILLE     CLOUDY    52  52 100 NE3       29.94R FOG
HAVELOCK       PTCLDY    58  56  93 N5        29.89R
KENANSVILLE    PTCLDY    52  52 100 CALM      29.90R FOG
KINSTON        PTCLDY    54  52  94 NE3       29.92R
NEW BERN       MOCLDY    54  53  97 N5        29.90R
RICHLANDS      CLEAR     52  52 100 N3        29.90R
ROCKY MOUNT    CLOUDY    51  51 100 CALM      29.92R FOG
WASHINGTON     MOCLDY    47  46  96 N3          N/A
WHITEVILLE     CLEAR     59  58  95 CALM      29.89R

$$

AMZ130-135-150-152-154-156-158-170-250-252-270-ANZ085-086-088-633-658-670-210300-
MARINE OBSERVATIONS

STATION/POSITION TIME  TEMP    WIND        PRES    WAVE   SWELL
                       AIR SEA DIR/SP/G            HT/PER HT/PER
                 (UTC) (F)     (DEG/KT/KT) (MB)    (FT/S) (FT/S)
CHESAPEAKE LIGHT NOT AVBL
64 E VA BEACH    0150   57 58   30/ 10/ 10 1011.8    4/10   3/10
DUCK             0154   47 45  350/ 12/ 13 1012.3
2 E DUCK         0200      45                N/A     4/11   2/11
OREGON INLET     0154   52 48  340/  4/  5 1012.2
13E OREGON INLT  NOT AVBL
HATTERAS CG      0154   51 55   10/  8/  9 1011.5
DIAMOND BUOY     0150   67 76  290/ 12/ 14 1011.3    5/13   5/13
CAPE LOOKOUT     0200   62     250/  6/  8 1011.3
BEAUFORT LAB     0154   59 51  340/  1/  2 1010.7
30 SE NEW RVR IN 0208   62 62  270/ 10/ 12 1012.0
30 SE NEW RVR IN 0143      62                N/A     4/11   2/11
27 SE WRIGHTSVLE 0208   66 71  260/ 12/ 16 1011.8
5 SE WRIGHTSVLE  0208   56     280/  4/  6 1012.1
225 S CAPE HAT   0150   72 70  200/ 10/ 12 1013.7    5/13   5/13
41 SE CHARLESTON 0150   69 68  220/ 10/ 10 1012.5    3/ 5   2/ 5

$$




USA.gov is the U.S. government's official web portal to all federal, state and local government web resources and services.